Renton, WA
on Sunday, November 11, 2012

Sunday
Previous Day Next Day
Daily Summary
 ActualAverage (KSEA)Record (KSEA)
Temperature
Mean Temperature °F 46°F  
Max Temperature 50°F 52°F 65°F (1990)
Min Temperature 34°F 41°F 15°F (1955)
Degree Days
Heating Degree Days 23 19  
Month to date heating degree days 192  
Since 1 July heating degree days 789  
Cooling Degree Days 0 0  
Month to date cooling degree days 0  
Year to date cooling degree days 189  
Moisture
Dew Point 35°F   
Average Humidity 77    
Maximum Humidity 89    
Minimum Humidity 58    
Precipitation
Precipitation 0.00 in 0.23 in 1.48 in (1973)
Month to date precipitation 2.27  
Year to date precipitation 27.84  
Snow
Snow 0.00 in in 1.40 in (1955)
Month to date snowfall  
Since 1 July snowfall  
Snow Depth in   
Wind
Wind Speed 3 mph   
Max Wind Speed 5 mph   
Max Gust Speed mph   
Visibility 8 miles   
Events Rain , Snow   

Key: T is trace of precipitation, MM is missing value
Source: NWS Daily Summary
Time(PST)TemperatureDew PointHumidity Pressure Visibility Wind DirectionWind SpeedGust SpeedPrecipitationEvents Conditions
12:53 AM 34.0°F 30.0°F 85% 30.26 in 8.0 miles ESE 3.5 mph - N/A   Clear
1:53 AM 34.0°F 30.0°F 85% 30.26 in 9.0 miles ESE 3.5 mph - 0.00 in Snow Light Snow
2:53 AM 34.0°F 28.9°F 82% 30.26 in 9.0 miles ESE 3.5 mph - 0.00 in   Clear
3:53 AM 34.0°F 28.9°F 82% 30.25 in 10.0 miles SSE 3.5 mph - 0.00 in   Mostly Cloudy
4:53 AM 34.0°F 28.9°F 82% 30.25 in 10.0 miles SE 3.5 mph - N/A   Scattered Clouds
6:53 AM 36.0°F 28.9°F 76% 30.24 in 10.0 miles Calm Calm - N/A   Overcast
7:53 AM 37.0°F 30.0°F 76% 30.25 in 10.0 miles Calm Calm - 0.00 in   Overcast
8:53 AM 37.9°F 30.0°F 73% 30.25 in 10.0 miles Calm Calm - N/A   Overcast
9:53 AM 39.9°F 30.9°F 70% 30.24 in 10.0 miles SSE 4.6 mph - 0.00 in   Overcast
10:53 AM 42.1°F 32.0°F 67% 30.24 in 10.0 miles SSE 3.5 mph - N/A   Overcast
11:53 AM 45.0°F 33.1°F 63% 30.22 in 10.0 miles SSE 3.5 mph - N/A   Overcast
12:53 PM 48.0°F 34.0°F 58% 30.21 in 10.0 miles Calm Calm - N/A   Overcast
1:53 PM 48.9°F 36.0°F 61% 30.19 in 10.0 miles Calm Calm - N/A   Overcast
2:53 PM 50.0°F 36.0°F 59% 30.17 in 10.0 miles Calm Calm - N/A   Overcast
3:53 PM 48.0°F 39.9°F 74% 30.17 in 6.0 miles ESE 3.5 mph - 0.00 in Rain Light Rain
4:53 PM 46.4°F 41.0°F 81% 30.14 in 7.0 miles SE 4.6 mph - N/A Rain Light Rain
5:53 PM 45.0°F 41.0°F 86% 30.14 in 5.0 miles Variable 4.6 mph - N/A Rain Rain
6:53 PM 45.0°F 39.9°F 82% 30.11 in 7.0 miles SSE 3.5 mph - N/A Rain Light Rain
7:53 PM 45.0°F 41.0°F 86% 30.11 in 8.0 miles Variable 3.5 mph - N/A Rain Light Rain
8:53 PM 45.0°F 41.0°F 86% 30.12 in 8.0 miles Calm Calm - N/A Rain Light Rain
9:53 PM 45.0°F 41.0°F 86% 30.12 in 8.0 miles SSE 3.5 mph - N/A Rain Light Rain
10:53 PM 44.1°F 41.0°F 89% 30.10 in 5.0 miles SSE 3.5 mph - N/A Rain Rain
11:53 PM 45.0°F 41.0°F 86% 30.12 in 5.0 miles Calm Calm - N/A Rain Light Rain
Moon Phase
Nov. 11 Nov. 13 Nov. 20 Nov. 28 Dec. 06
Sunrise:07:08 AM (PST) Moon Rise:04:20 AM (PST)11/11
Sunset:04:36 PM (PST) Moon Set:03:10 PM (PST)11/11

Copyright © 2014 The Weather Underground, Inc.